Regional Weather Roundup
Issued by NWS

Home | Current Version | Previous Version | Graphics & Text | Print | Product List | Glossary On
Versions: 1 2 3 4 5 6 7 8 9 10 11 12 13 14 15 16 17 18 19 20 21 22 23 24 25 26 27 28 29 30 31 32 33 34 35 36 37 38 39 40 41 42 43 44 45 46 47 48 49 50
000
ASUS43 KMKX 221700
RWRWI

WISCONSIN REGIONAL WEATHER ROUNDUP
NATIONAL WEATHER SERVICE MILWAUKEE/SULLIVAN WI
1200 PM CDT MON MAY 22 2017

NOTE: "FAIR" INDICATES FEW OR NO CLOUDS BELOW 12,000 FEET WITH NO
SIGNIFICANT WEATHER AND/OR OBSTRUCTIONS TO VISIBILITY.

WIZ001-002-006>008-014>016-023>028-221800-
NORTHWEST WISCONSIN

CITY           SKY/WX    TMP DP  RH WIND       PRES   REMARKS
SUPERIOR ARPT  NOT AVBL
ASHLAND        LGT RAIN  50  43  77 SW13      29.77S
HAYWARD        CLOUDY    50  41  71 W10       29.81R
SIREN          CLOUDY    52  42  69 W10       29.83R
CUMBERLAND     CLOUDY    52  41  66 W15G22    29.83R
RICE LAKE      CLOUDY    55  43  63 W15       29.84S
CHETEK         CLOUDY    56  44  64 W13       29.83S
LADYSMITH      CLOUDY    55  43  64 W12       29.83S
EAU CLAIRE     NOT AVBL
MENOMONIE      PTSUNNY   59  43  54 W14G20    29.84F
NEW RICHMOND   MOSUNNY   58  41  53 W21G28    29.84S
OSCEOLA        PTSUNNY   57  43  59 W14       29.87S
$$

WIZ003>005-009-010-017-018-221800-
NORTH CENTRAL WISCONSIN

CITY           SKY/WX    TMP DP  RH WIND       PRES   REMARKS
MANITOWISH WTR CLOUDY    47  43  84 W6        29.78S
ARBOR VITAE    PTSUNNY   52  44  74 W7G18     29.79S
WOODRUFF       PTSUNNY   52  44  74 W7G18     29.79S
RHINELANDER    CLOUDY    54  41  61 W10G20    29.81F
EAGLE RIVER    CLOUDY    50  39  66 SW12G22   29.79S
LAND O LAKES   CLOUDY    51  41  69 SW8G16    29.80S
PHILLIPS       CLOUDY    50  43  76 SW13G21   29.80S
TOMAHAWK       CLOUDY    52  41  65 W9        29.82F
MEDFORD        PTSUNNY   55  43  64 SW12G21   29.82F
MERRILL        PTSUNNY   55  43  65 W9G16     29.83F
$$

WIZ029-030-035-036-043>047-221800-
CENTRAL WISCONSIN

CITY           SKY/WX    TMP DP  RH WIND       PRES   REMARKS
WAUSAU         PTSUNNY   58  42  55 W15G24    29.82F
MOSINEE        NOT AVBL
MARSHFIELD     SUNNY     61  44  53 W14G23    29.83F
STEVENS POINT  MOSUNNY   58  40  51 W14G21    29.86F
WAUPACA        SUNNY     64  43  45 SW12G18   29.87F
WAUTOMA        SUNNY     63  45  51 SW9G18    29.87F
WISC RAPIDS    SUNNY     63  44  50 W14G21    29.86F
CAMP DOUGLAS   NOT AVBL
$$

WIZ011>013-019>022-031-037>040-048>050-221800-
NORTHEAST WISCONSIN

CITY           SKY/WX    TMP DP  RH WIND       PRES   REMARKS
ANTIGO         PTSUNNY   54  44  69 W17       29.83F
SHAWANO        PTSUNNY   60  43  53 SW14G24   29.85F
OCONTO         PTSUNNY   58  42  54 W15G22    29.85S
STURGEON BAY   PTSUNNY   57  44  62 W16G24    29.86S
GREEN BAY      PTSUNNY   61  46  57 SW15G21   29.87F
MANITOWOC      NOT AVBL
APPLETON       NOT AVBL
CLINTONVILLE   PTSUNNY   59  41  51 W7G17     29.86F
OSHKOSH        MOSUNNY   61  44  53 SW12G25   29.87F
$$

WIZ032>034-041-042-053>061-221800-
SOUTHWEST WISCONSIN

CITY           SKY/WX    TMP DP  RH WIND       PRES   REMARKS
LA CROSSE      SUNNY     66  48  52 S12       29.86F
SPARTA         SUNNY     62  46  55 W8        29.88F
VIROQUA        SUNNY     57  46  67 N13G21    29.91R
BOSCOBEL       LGT RAIN  55  50  83 S5        29.92F
PRAIRIE DU CHI LGT RAIN  53  47  81 S6        29.92F
PLATTEVILLE    CLOUDY    58  50  75 SW12      29.97S
$$

WIZ056-057-062-063-064-067-068-221800-
SOUTH CENTRAL WISCONSIN

CITY           SKY/WX    TMP DP  RH WIND       PRES   REMARKS
REEDSBURG      MOSUNNY   60  47  63 SW15G24   29.91R
BARABOO/DELLS  MOSUNNY   61  47  59 SW15G24   29.90S
LONE ROCK      NOT AVBL
MINERAL POINT  RAIN      54  50  87 SW7       29.96S
MADISON        LGT RAIN  60  47  61 SW8G20    29.93S
MIDDLETON      PTSUNNY   61  48  61 W18       29.93S
WATERTOWN      PTSUNNY   61  47  61 SW15G24   29.93S
MONROE         CLOUDY    59  45  58 SW17G24   29.97S
JANESVILLE     PTSUNNY   64  48  55 SW16G22   29.95F
$$

WIZ051-052-058>065-066-070>072-221800-
SOUTHEAST WISCONSIN

CITY           SKY/WX    TMP DP  RH WIND       PRES   REMARKS
MILWAUKEE      MOSUNNY   66  44  45 W16G26    29.95F
WAUKESHA       MOSUNNY   61  45  55 SW17G23   29.95F
MILWAUKEE/TIMM MOSUNNY   63  43  48 W16G26    29.94F
RACINE         SUNNY     65  45  48 SW12G22   29.97S
KENOSHA        PTSUNNY   66  47  50 SW18      29.95F
FOND DU LAC    MOSUNNY   63  45  51 SW17G25   29.89F
SHEBOYGAN      PTSUNNY   62  47  57 SW18      29.90S
WEST BEND      MOSUNNY   61  45  55 SW14G21   29.92S
JUNEAU         PTSUNNY   60  47  62 SW15G24   29.93F
$$

LSZ147-162-221800-
LAKE SUPERIOR

STATION/POSITION TIME  TEMP    WIND        PRES    WAVE
                       AIR SEA DIR/SP/G            HT/PER
                 (UTC) (F)     (DEG/KT/KT) (MB)    (FT/S)
W MID LAKE BUOY  1550   40 37  230/ 12/ 12 1007.3S   2/ 5
DEVILS ISLAND    1600   45     230/ 19/ 21 1007.5R
SAXON HARBOR     1640   54     210/ 11/ 16 1007.8S
$$

LMZ867-665-643>646-221800-
LAKE MICHIGAN

STATION/POSITION TIME  TEMP    WIND        PRES    WAVE
                       AIR SEA DIR/SP/G            HT/PER
                 (UTC) (F)     (DEG/KT/KT) (MB)    (FT/S)
CHAMBERS ISLAND  1640   56     210/  7/ 14 1010.2S
N MID LAKE BUOY  1550   42 39  210/ 12/ 14 1011.2R   2/ 5
NORTHPORT PIER   1630   55     230/ 10/ 18 1010.5R
KEWAUNEE LAKESHO 1624   56     250/ 10/ 17 1011.1
SHEBOYGAN LAKESH 1500   55     270/ 13/ 15 1013.1F
PORT WASHINGTON  1640   64     230/ 11/ 20 1014.2S
ATWATER BUOY     1509   55     240/ 10/ 12 1014.0F
MILWAUKEE LAKESH 1640   61     240/ 18/ 22   N/A
S MID LAKE BUOY  1550   47 44  220/ 12/ 14 1015.9F   2/ 4
KENOSHA   LAKESH 1600   60     240/ 13/ 20 1014.9
$$

TC  - TEMPERATURE IN CELSIUS
VSB - VISIBILITY IN STATUTE MILES
WCI - WIND CHILL INDEX
HX  - HEAT INDEX





USA.gov is the U.S. government's official web portal to all federal, state and local government web resources and services.